Orbital Elements at Epoch 2459000.5 (2020-May-31.0) TDB
Reference: JPL 16 (heliocentric ecliptic J2000)
Element | Value | Uncertainty (1-sigma) | Units |
e | .2115762086375327 | 5.053e-08 | |
a | 2.271430208821054 | 6.8892e-09 | au |
q | 1.790849617053936 | 1.1573e-07 | au |
i | 7.945722261601713 | 3.5979e-06 | deg |
node | 83.00215720423748 | 3.6671e-05 | deg |
peri | 291.8824137416913 | 3.7588e-05 | deg |
M | 325.5742414671425 | 7.0651e-06 | deg |
tp | 2459120.071737597195 (2020-Sep-27.57173760) | 2.4484e-05 | TDB |
period | 1250.39584803644 3.42 | 5.6887e-06 1.557e-08 | d yr |
n | .2879088254854063 | 1.3098e-09 | deg/d |
Q | 2.752010800588172 | 8.3468e-09 | au |
|
| | Orbit Determination Parameters
Additional Information
|